Regional Weather Roundup
Issued by NWS

Home | Current Version | Previous Version | Graphics & Text | Print | Product List | Glossary On
Versions: 1 2 3 4 5 6 7 8 9 10 11 12 13 14 15 16 17 18 19 20 21 22 23 24 25 26 27 28 29 30 31 32 33 34 35 36 37 38 39 40 41 42 43 44 45 46 47 48 49 50
000
ASUS43 KLSX 012007
RWRMO

WEATHER SUMMARY FOR MISSOURI
NATIONAL WEATHER SERVICE SPRINGFIELD MO
300 PM CDT SAT OCT 01 2016

NOTE: "FAIR" INDICATES FEW OR NO CLOUDS BELOW 12,000 FEET WITH NO
       SIGNIFICANT WEATHER AND/OR OBSTRUCTIONS TO VISIBILITY.
       CURRENT SKY AND/OR WEATHER CONDITIONS ARE NOT AVAILABLE FOR
       CHILLICOTHE AND FARMINGTON.

MOZ001>031-035>038-043-044-053-054-012100-
...NORTHERN AND WESTERN MISSOURI...

CITY           SKY/WX    TMP DP  RH WIND       PRES   REMARKS
KANSAS CTY INT CLOUDY    64  52  64 N5        30.09F
KANSAS C DTWN  CLOUDY    68  53  58 N7        30.08F
LEE`S SUMMIT   CLOUDY    66  54  65 N5        30.08F
ST JOSEPH      CLOUDY    66  54  65 N3        30.08S
CHILLICOTHE      N/A     67  58  72 VRB5      30.07F
KIRKSVILLE     CLOUDY    67  57  70 W5        30.05F

$$
MOZ066>068-077>081-088>096-101>105-012100-
...SOUTHWEST MISSOURI...

CITY           SKY/WX    TMP DP  RH WIND       PRES   REMARKS
SPRINGFIELD    PTSUNNY   72  54  53 N9        30.06F
JOPLIN         SUNNY     75  52  44 N6        30.06F
BRANSON        PTSUNNY   73  50  43 W7        30.07F

$$
MOZ032>034-039>042-045>050-055>058-069>072-012100-
...CENTRAL MISSOURI...

CITY           SKY/WX    TMP DP  RH WIND       PRES   REMARKS
COLUMBIA       CLOUDY    66  58  75 W6        30.06F
JEFFERSON CITY CLOUDY    67  57  70 NW7       30.06F
ROLLA          CLOUDY    65  55  70 NW8       30.05F
SEDALIA        CLOUDY    68  55  63 NW8       30.08F
WHITEMAN AFB   CLOUDY    66  56  70 NW3       30.07F
OSAGE BEACH    CLOUDY    66  56  70 N3        30.08F

$$
MOZ051-052-059>065-012100-
...EAST CENTRAL MISSOURI...

CITY           SKY/WX    TMP DP  RH WIND       PRES   REMARKS
ST LOUIS INTL  CLOUDY    71  56  58 W12       30.02F
SPIRIT OF STL  CLOUDY    69  59  70 NW8       30.02S
ST CHARLES     PTSUNNY   70  58  65 W9        30.00F

$$
MOZ072>076-082>087-097>100-106>115-012100-
...SOUTH CENTRAL AND SOUTHEAST MISSOURI...

CITY           SKY/WX    TMP DP  RH WIND       PRES   REMARKS
CAPE GIRARDEAU LGT RAIN  67  60  78 SW6       30.03S
FARMINGTON     CLOUDY    66  58  75 W6        30.05F
POPLAR BLUFF   CLOUDY    72  60  66 N10       30.03F
WEST PLAINS    PTSUNNY   72  53  51 NW9       30.07F

$$



USA.gov is the U.S. government's official web portal to all federal, state and local government web resources and services.